GW5440 Weather Reports


Display with metric or nautical units.
time (UTC)temp
F
wind
direction
speed
MPH
gust
MPH
rain 1hr
in
rain 24hr
in
rain mn
in
humidity
%
barometer
mb
20260502152200 59 277 0.0 2.0 0.00 0.00 0.00 33 1019.6
20260502151201 59 343 1.0 3.0 0.00 0.00 0.00 32 1019.6
20260502151000 59 291 0.0 2.0 0.00 0.00 0.00 32 1019.6
20260502150600 59 290 0.0 2.0 0.00 0.00 0.00 33 1019.6
20260502150359 59 290 0.0 2.0 0.00 0.00 0.00 32 1019.6
20260502150200 59 290 1.0 2.0 0.00 0.00 0.00 32 1019.6
20260502130601 44 93 0.0 0.0 0.00 0.00 0.00 54 1019.2
20260502130202 44 93 0.0 0.0 0.00 0.00 0.00 54 1019.2
20260502123601 45 93 0.0 0.0 0.00 0.00 0.00 51 1019.1
20260502123201 45 93 0.0 0.0 0.00 0.00 0.00 51 1019.0
20260502123000 45 93 0.0 0.0 0.00 0.00 0.00 51 1019.0
20260502122801 45 93 0.0 0.0 0.00 0.00 0.00 51 1019.0
20260502122600 45 93 0.0 0.0 0.00 0.00 0.00 52 1019.0
20260502122402 45 93 0.0 0.0 0.00 0.00 0.00 51 1018.9
20260502122159 45 93 0.0 0.0 0.00 0.00 0.00 51 1019.0
20260502122000 45 93 0.0 0.0 0.00 0.00 0.00 52 1019.0
20260502121800 45 93 0.0 0.0 0.00 0.00 0.00 52 1019.0
20260502121400 45 93 0.0 0.0 0.00 0.00 0.00 51 1019.0
20260502121200 45 93 0.0 0.0 0.00 0.00 0.00 51 1019.0
20260502121000 45 93 0.0 0.0 0.00 0.00 0.00 51 1018.9
20260502120800 45 93 0.0 0.0 0.00 0.00 0.00 51 1018.9
20260502120600 45 93 0.0 0.0 0.00 0.00 0.00 51 1018.9
20260502120159 45 93 0.0 0.0 0.00 0.00 0.00 51 1018.9
20260502115759 45 93 0.0 0.0 0.00 0.00 0.00 51 1018.9
20260502115559 45 93 0.0 0.0 0.00 0.00 0.00 51 1018.9
20260502115400 45 93 0.0 0.0 0.00 0.00 0.00 51 1018.8
20260502115201 45 93 0.0 0.0 0.00 0.00 0.00 51 1018.9
20260502114800 45 93 0.0 2.0 0.00 0.00 0.00 52 1018.9
20260502114600 45 93 0.0 3.0 0.00 0.00 0.00 52 1018.9
20260502114400 45 93 0.0 3.0 0.00 0.00 0.00 52 1019.0
20260502114201 45 93 1.0 3.0 0.00 0.00 0.00 52 1018.9
20260502114000 45 93 1.0 3.0 0.00 0.00 0.00 52 1019.0
20260502113850 45 93 1.0 4.0 0.00 0.00 0.00 52 1018.9
20260502113001 45 93 2.0 3.0 0.00 0.00 0.00 52 1019.0
20260502112801 45 93 2.0 3.0 0.00 0.00 0.00 53 1019.0
20260502112600 45 112 1.0 2.0 0.00 0.00 0.00 53 1019.0
20260502112401 45 112 1.0 3.0 0.00 0.00 0.00 53 1019.0
20260502112202 45 112 1.0 3.0 0.00 0.00 0.00 53 1019.0
20260502112001 45 112 1.0 3.0 0.00 0.00 0.00 53 1019.0
20260502111801 45 112 2.0 3.0 0.00 0.00 0.00 53 1019.0
20260502111601 46 112 2.0 3.0 0.00 0.00 0.00 53 1019.0
20260502111001 46 70 1.0 2.0 0.00 0.00 0.00 51 1019.0
20260502110801 46 70 0.0 2.0 0.00 0.00 0.00 51 1019.0
20260502110601 46 70 0.0 0.0 0.00 0.00 0.00 51 1019.0
20260502110201 47 70 0.0 0.0 0.00 0.00 0.00 51 1019.0
20260502110002 47 70 0.0 0.0 0.00 0.00 0.00 51 1019.0
20260502105802 47 70 0.0 0.0 0.00 0.00 0.00 51 1019.1
20260502105601 47 70 0.0 0.0 0.00 0.00 0.00 52 1019.0
20260502105402 47 70 0.0 0.0 0.00 0.00 0.00 51 1019.1
20260502105200 48 70 0.0 0.0 0.00 0.00 0.00 50 1019.0
20260502105002 48 70 0.0 0.0 0.00 0.00 0.00 50 1019.0
20260502104601 48 70 0.0 0.0 0.00 0.00 0.00 51 1019.0
20260502104401 48 70 0.0 0.0 0.00 0.00 0.00 51 1019.0
20260502104000 48 70 0.0 0.0 0.00 0.00 0.00 53 1018.9
20260502103801 48 70 0.0 0.0 0.00 0.00 0.00 53 1019.0
20260502103402 48 70 0.0 0.0 0.00 0.00 0.00 54 1019.0
20260502103201 48 70 0.0 0.0 0.00 0.00 0.00 54 1019.0
20260502103001 48 70 0.0 0.0 0.00 0.00 0.00 55 1019.0
20260502102601 48 70 0.0 0.0 0.00 0.00 0.00 55 1019.0
20260502102400 48 70 0.0 0.0 0.00 0.00 0.00 55 1019.0
20260502102201 48 70 0.0 0.0 0.00 0.00 0.00 55 1019.0
20260502102000 48 70 0.0 0.0 0.00 0.00 0.00 55 1018.9
20260502101801 48 70 0.0 1.0 0.00 0.00 0.00 54 1019.0
20260502101402 48 70 0.0 3.0 0.00 0.00 0.00 54 1018.8
20260502101201 48 70 0.0 3.0 0.00 0.00 0.00 54 1018.8
20260502101002 48 70 0.0 3.0 0.00 0.00 0.00 54 1018.8
20260502100802 48 70 1.0 3.0 0.00 0.00 0.00 54 1018.8
20260502100602 48 70 1.0 4.0 0.00 0.00 0.00 54 1018.8
20260502100402 48 70 1.0 4.0 0.00 0.00 0.00 54 1018.8
20260502100202 48 70 1.0 4.0 0.00 0.00 0.00 54 1018.8
20260502091359 47 360 0.0 2.0 0.00 0.00 0.00 57 1018.9
20260502091200 47 360 0.0 2.0 0.00 0.00 0.00 57 1018.8
20260502091000 47 360 0.0 2.0 0.00 0.00 0.00 57 1018.8
20260502090800 46 360 0.0 3.0 0.00 0.00 0.00 57 1018.9
20260502090600 46 360 1.0 3.0 0.00 0.00 0.00 57 1018.8
20260502090359 46 355 1.0 3.0 0.00 0.00 0.00 57 1018.8
20260502090159 46 355 0.0 3.0 0.00 0.00 0.00 57 1018.8
20260502071201 48 265 0.0 0.0 0.00 0.00 0.00 56 1018.6
20260502071001 48 265 0.0 0.0 0.00 0.00 0.00 56 1018.5
20260502070801 47 265 0.0 0.0 0.00 0.00 0.00 56 1018.5
20260502070601 47 265 0.0 0.0 0.00 0.00 0.00 56 1018.5
20260502070202 47 265 0.0 0.0 0.00 0.00 0.00 57 1018.6
20260502065801 47 265 0.0 0.0 0.00 0.00 0.00 57 1018.6
20260502065603 47 265 0.0 0.0 0.00 0.00 0.00 58 1018.6
20260502065403 47 265 0.0 0.0 0.00 0.00 0.00 57 1018.6
20260502065202 47 265 0.0 0.0 0.00 0.00 0.00 58 1018.6
20260502065002 47 265 0.0 0.0 0.00 0.00 0.00 58 1018.7
20260502064802 47 265 0.0 0.0 0.00 0.00 0.00 57 1018.7
20260502064601 47 265 0.0 0.0 0.00 0.00 0.00 58 1018.7
20260502064402 47 265 0.0 0.0 0.00 0.00 0.00 58 1018.7
20260502064203 47 265 0.0 0.0 0.00 0.00 0.00 57 1018.7
20260502064002 48 265 0.0 0.0 0.00 0.00 0.00 57 1018.7
20260502063803 48 265 0.0 0.0 0.00 0.00 0.00 57 1018.7
20260502063601 48 265 0.0 0.0 0.00 0.00 0.00 57 1018.7
20260502063402 48 265 0.0 0.0 0.00 0.00 0.00 57 1018.7
20260502063202 48 265 0.0 0.0 0.00 0.00 0.00 58 1018.7
20260502063002 48 265 0.0 0.0 0.00 0.00 0.00 58 1018.7
20260502062802 48 265 0.0 0.0 0.00 0.00 0.00 58 1018.7
20260502062402 48 265 0.0 0.0 0.00 0.00 0.00 57 1018.8
20260502062003 48 265 0.0 2.0 0.00 0.00 0.00 57 1018.8
20260502061802 48 265 0.0 2.0 0.00 0.00 0.00 57 1018.7
20260502061403 49 265 1.0 3.0 0.00 0.00 0.00 57 1018.8
20260502060802 49 265 0.0 0.0 0.00 0.00 0.00 53 1018.7
20260502060602 49 265 0.0 0.0 0.00 0.00 0.00 54 1018.7
20260502060402 49 265 0.0 0.0 0.00 0.00 0.00 54 1018.7
20260502060202 49 265 0.0 0.0 0.00 0.00 0.00 54 1018.7
20260502060006 49 265 0.0 0.0 0.00 0.00 0.00 54 1018.6
20260502055803 49 265 0.0 0.0 0.00 0.00 0.00 54 1018.6
20260502055603 49 265 0.0 0.0 0.00 0.00 0.00 54 1018.6
20260502055403 49 265 0.0 0.0 0.00 0.00 0.00 54 1018.5
20260502055002 49 265 0.0 0.0 0.00 0.00 0.00 54 1018.5
20260502054803 50 265 0.0 0.0 0.00 0.00 0.00 53 1018.6
20260502054603 50 265 0.0 0.0 0.00 0.00 0.00 54 1018.5
20260502054404 50 265 0.0 0.0 0.00 0.00 0.00 53 1018.5
20260502054204 50 265 0.0 0.0 0.00 0.00 0.00 54 1018.5
20260502054004 50 265 0.0 0.0 0.00 0.00 0.00 53 1018.4
20260502053803 50 265 0.0 0.0 0.00 0.00 0.00 52 1018.4
20260502053603 50 265 0.0 0.0 0.00 0.00 0.00 52 1018.4
20260502053402 51 265 0.0 0.0 0.00 0.00 0.00 52 1018.4
20260502053203 51 265 0.0 0.0 0.00 0.00 0.00 51 1018.5
20260502053003 51 265 0.0 0.0 0.00 0.00 0.00 51 1018.5
20260502052603 51 265 0.0 0.0 0.00 0.00 0.00 51 1018.5
20260502052403 51 265 0.0 0.0 0.00 0.00 0.00 51 1018.5
20260502052203 52 265 0.0 0.0 0.00 0.00 0.00 51 1018.5
20260502052003 52 306 0.0 0.0 0.00 0.00 0.00 50 1018.5
20260502051803 52 306 0.0 0.0 0.00 0.00 0.00 50 1018.5
20260502051603 52 306 0.0 0.0 0.00 0.00 0.00 49 1018.5
20260502051203 52 306 0.0 0.0 0.00 0.00 0.00 50 1018.5
20260502051002 52 306 0.0 0.0 0.00 0.00 0.00 50 1018.5
20260502050802 52 306 0.0 0.0 0.00 0.00 0.00 50 1018.5
20260502050604 52 306 0.0 0.0 0.00 0.00 0.00 50 1018.5
20260502050404 52 306 0.0 0.0 0.00 0.00 0.00 50 1018.4
20260502050203 52 306 0.0 0.0 0.00 0.00 0.00 50 1018.5
20260502050004 52 306 0.0 0.0 0.00 0.00 0.00 50 1018.5
20260502045802 52 306 0.0 0.0 0.00 0.00 0.00 50 1018.5
20260502045602 52 306 0.0 1.0 0.00 0.00 0.00 50 1018.5
20260502045401 52 306 0.0 1.0 0.00 0.00 0.00 51 1018.4
20260502045002 52 306 0.0 1.0 0.00 0.00 0.00 50 1018.5
20260502044802 52 306 0.0 1.0 0.00 0.00 0.00 50 1018.4
20260502044602 52 306 0.0 1.0 0.00 0.00 0.00 49 1018.4
20260502044201 53 306 0.0 1.0 0.00 0.00 0.00 49 1018.4
20260502043803 53 306 0.0 1.0 0.00 0.00 0.00 49 1018.4
20260502043202 53 306 0.0 1.0 0.00 0.00 0.00 49 1018.4
20260502043003 53 306 0.0 1.0 0.00 0.00 0.00 48 1018.3
20260502042802 53 306 0.0 0.0 0.00 0.00 0.00 48 1018.3
20260502042602 53 306 0.0 0.0 0.00 0.00 0.00 48 1018.3
20260502042402 53 306 0.0 0.0 0.00 0.00 0.00 48 1018.3
20260502042003 53 306 0.0 0.0 0.00 0.00 0.00 47 1018.3
20260502041801 54 306 0.0 0.0 0.00 0.00 0.00 47 1018.3
20260502041401 54 306 0.0 0.0 0.00 0.00 0.00 47 1018.3
20260502041001 54 306 0.0 0.0 0.00 0.00 0.00 45 1018.3
20260502040603 54 306 0.0 0.0 0.00 0.00 0.00 45 1018.3
20260502040401 54 306 0.0 1.0 0.00 0.00 0.00 45 1018.2
20260502040202 55 306 0.0 2.0 0.00 0.00 0.00 45 1018.2
20260502040005 55 306 0.0 2.0 0.00 0.00 0.00 45 1018.2
20260502035802 55 306 0.0 2.0 0.00 0.00 0.00 45 1018.2
20260502035601 55 306 1.0 2.0 0.00 0.00 0.00 43 1018.1
20260502035402 55 306 1.0 1.0 0.00 0.00 0.00 44 1018.1
20260502035202 55 306 0.0 2.0 0.00 0.00 0.00 44 1018.2
20260502035002 55 306 0.0 2.0 0.00 0.00 0.00 44 1018.1
20260502034802 55 306 0.0 2.0 0.00 0.00 0.00 44 1018.1
20260502034602 55 306 0.0 2.0 0.00 0.00 0.00 45 1018.1
20260502034402 55 306 1.0 2.0 0.00 0.00 0.00 45 1018.1
20260502034201 55 306 1.0 1.0 0.00 0.00 0.00 44 1018.0
20260502034002 55 306 0.0 1.0 0.00 0.00 0.00 45 1018.0
20260502033802 55 306 0.0 0.0 0.00 0.00 0.00 45 1017.9
20260502033602 55 306 0.0 0.0 0.00 0.00 0.00 44 1017.9
20260502033402 55 306 0.0 1.0 0.00 0.00 0.00 45 1017.9
20260502033201 55 306 0.0 1.0 0.00 0.00 0.00 45 1017.9
20260502032802 55 306 0.0 1.0 0.00 0.00 0.00 45 1017.8
20260502032601 55 306 0.0 1.0 0.00 0.00 0.00 46 1017.8
20260502032402 55 306 0.0 1.0 0.00 0.00 0.00 46 1017.8
20260502032201 55 306 0.0 2.0 0.00 0.00 0.00 46 1017.8
20260502031801 55 306 0.0 2.0 0.00 0.00 0.00 47 1017.8
20260502031601 55 306 0.0 1.0 0.00 0.00 0.00 46 1017.7
20260502031402 55 306 0.0 1.0 0.00 0.00 0.00 46 1017.7
20260502031003 55 306 0.0 1.0 0.00 0.00 0.00 46 1017.6
20260502030801 56 306 0.0 1.0 0.00 0.00 0.00 46 1017.6
20260502030602 56 306 0.0 0.0 0.00 0.00 0.00 46 1017.5
20260502030402 56 306 0.0 0.0 0.00 0.00 0.00 46 1017.5
20260502030202 56 306 0.0 0.0 0.00 0.00 0.00 45 1017.5
20260502030002 56 306 0.0 0.0 0.00 0.00 0.00 45 1017.5
20260502025802 56 306 0.0 0.0 0.00 0.00 0.00 45 1017.4
20260502025602 56 306 0.0 0.0 0.00 0.00 0.00 44 1017.4
20260502025202 57 306 0.0 0.0 0.00 0.00 0.00 44 1017.4
20260502025002 57 306 0.0 0.0 0.00 0.00 0.00 44 1017.4
20260502024802 57 306 0.0 0.0 0.00 0.00 0.00 43 1017.4
20260502024402 57 306 0.0 2.0 0.00 0.00 0.00 44 1017.3
20260502024002 58 306 0.0 2.0 0.00 0.00 0.00 43 1017.3
20260502023802 58 306 0.0 1.0 0.00 0.00 0.00 43 1017.2
20260502023601 58 306 0.0 1.0 0.00 0.00 0.00 43 1017.3
20260502023402 58 306 0.0 1.0 0.00 0.00 0.00 43 1017.2
20260502023003 59 306 0.0 1.0 0.00 0.00 0.00 42 1017.3
20260502022802 59 306 0.0 2.0 0.00 0.00 0.00 42 1017.2
20260502022601 59 306 0.0 2.0 0.00 0.00 0.00 41 1017.2
20260502022402 59 306 0.0 2.0 0.00 0.00 0.00 41 1017.2
20260502022202 59 306 0.0 2.0 0.00 0.00 0.00 40 1017.1
20260502022001 60 306 1.0 2.0 0.00 0.00 0.00 40 1017.1
20260502021803 60 306 1.0 2.0 0.00 0.00 0.00 40 1017.1
20260502021601 60 307 1.0 2.0 0.00 0.00 0.00 40 1017.1
20260502021402 60 307 0.0 2.0 0.00 0.00 0.00 40 1017.1
20260502021202 61 307 1.0 2.0 0.00 0.00 0.00 39 1017.1
20260502021002 61 307 1.0 3.0 0.00 0.00 0.00 39 1017.1
20260502020801 61 308 1.0 3.0 0.00 0.00 0.00 39 1017.0
20260502020401 62 309 1.0 4.0 0.00 0.00 0.00 38 1017.0
20260502020202 62 294 0.0 6.0 0.00 0.00 0.00 37 1017.0
20260502020004 62 289 2.0 6.0 0.00 0.00 0.00 37 1017.0
20260502015802 62 298 2.0 8.0 0.00 0.00 0.00 36 1016.9
20260502015602 63 288 3.0 8.0 0.00 0.00 0.00 36 1017.0
20260502015403 63 305 3.0 8.0 0.00 0.00 0.00 34 1017.0
20260502015203 63 290 4.0 8.0 0.00 0.00 0.00 34 1016.9
20260502015003 63 304 3.0 7.0 0.00 0.00 0.00 34 1016.9
20260502014603 64 319 3.0 6.0 0.00 0.00 0.00 34 1016.9
20260502014402 64 298 2.0 4.0 0.00 0.00 0.00 34 1016.9
20260502014203 64 273 2.0 4.0 0.00 0.00 0.00 33 1016.9
20260502013802 64 292 2.0 5.0 0.00 0.00 0.00 33 1016.9
20260502013603 64 279 2.0 5.0 0.00 0.00 0.00 32 1016.8
20260502013403 64 281 2.0 5.0 0.00 0.00 0.00 31 1016.8
20260502013003 65 274 2.0 6.0 0.00 0.00 0.00 31 1016.8
20260502012803 65 272 3.0 8.0 0.00 0.00 0.00 32 1016.8
20260502012403 65 281 3.0 9.0 0.00 0.00 0.00 31 1016.8
20260502012202 65 280 3.0 9.0 0.00 0.00 0.00 31 1016.8
20260502011802 65 284 3.0 9.0 0.00 0.00 0.00 31 1016.8
20260502011603 65 263 4.0 9.0 0.00 0.00 0.00 31 1016.7
20260502011403 65 263 5.0 9.0 0.00 0.00 0.00 33 1016.6
20260502011202 66 290 5.0 8.0 0.00 0.00 0.00 33 1016.7
20260502010803 66 183 2.0 7.0 0.00 0.00 0.00 32 1016.7
20260502010603 66 223 2.0 7.0 0.00 0.00 0.00 32 1016.8
20260502010203 66 277 3.0 6.0 0.00 0.00 0.00 32 1016.7
20260502010005 66 265 4.0 9.0 0.00 0.00 0.00 32 1016.8
20260502005802 66 282 3.0 10.0 0.00 0.00 0.00 32 1016.7
20260502005602 66 307 3.0 10.0 0.00 0.00 0.00 31 1016.7
20260502005401 66 269 4.0 10.0 0.00 0.00 0.00 32 1016.7
20260502005201 66 270 4.0 10.0 0.00 0.00 0.00 32 1016.7
20260502005002 67 276 4.0 11.0 0.00 0.00 0.00 29 1016.8
20260502004802 67 284 3.0 11.0 0.00 0.00 0.00 28 1016.7
20260502004601 67 302 4.0 11.0 0.00 0.00 0.00 29 1016.7
20260502004402 67 296 6.0 11.0 0.00 0.00 0.00 28 1016.7
20260502004003 67 302 4.0 9.0 0.00 0.00 0.00 27 1016.7
20260502003802 67 287 5.0 9.0 0.00 0.00 0.00 27 1016.7
20260502003602 67 287 5.0 9.0 0.00 0.00 0.00 27 1016.7
20260502003402 67 331 5.0 9.0 0.00 0.00 0.00 26 1016.6
20260502003201 67 284 4.0 9.0 0.00 0.00 0.00 27 1016.7
20260502003001 67 306 4.0 9.0 0.00 0.00 0.00 27 1016.7
20260502002603 67 268 4.0 10.0 0.00 0.00 0.00 26 1016.7
20260502002401 67 291 4.0 10.0 0.00 0.00 0.00 28 1016.8
20260502002203 67 331 5.0 10.0 0.00 0.00 0.00 27 1016.8
20260502002001 67 299 6.0 10.0 0.00 0.00 0.00 27 1016.8
20260502001802 68 282 5.0 9.0 0.00 0.00 0.00 27 1016.8
20260502001601 68 302 4.0 9.0 0.00 0.00 0.00 26 1016.8
20260502001403 68 309 3.0 9.0 0.00 0.00 0.00 26 1016.8
20260502001201 68 280 3.0 9.0 0.00 0.00 0.00 26 1016.8
20260502001002 67 262 3.0 9.0 0.00 0.00 0.00 26 1016.8
20260502000802 67 294 4.0 9.0 0.00 0.00 0.00 27 1016.8
20260502000602 67 301 4.0 11.0 0.00 0.00 0.00 26 1016.8
20260502000402 67 306 3.0 11.0 0.00 0.00 0.00 26 1016.9
20260502000203 67 45 4.0 11.0 0.00 0.00 0.00 25 1016.9
20260501235802 67 328 4.0 11.0 0.00 0.00 0.00 27 1016.9
20260501235601 67 326 4.0 9.0 0.00 0.00 0.00 28 1016.9
20260501234802 67 295 5.0 9.0 0.00 0.00 0.00 28 1016.8
20260501234601 67 292 4.0 10.0 0.00 0.00 0.00 27 1016.9
20260501234402 67 326 4.0 10.0 0.00 0.00 0.00 27 1016.9
20260501234201 67 296 4.0 10.0 0.00 0.00 0.00 27 1016.9
20260501233802 67 329 6.0 15.0 0.00 0.00 0.00 27 1017.0
20260501233601 67 306 4.0 15.0 0.00 0.00 0.00 27 1017.0
20260501233402 67 304 6.0 15.0 0.00 0.00 0.00 27 1017.0
20260501233202 67 299 5.0 15.0 0.00 0.00 0.00 28 1017.0
20260501232802 67 279 5.0 9.0 0.00 0.00 0.00 27 1017.0
20260501232602 67 291 5.0 12.0 0.00 0.00 0.00 28 1017.0
20260501232401 67 259 5.0 12.0 0.00 0.00 0.00 28 1017.0
20260501232202 66 343 5.0 12.0 0.00 0.00 0.00 28 1017.0
20260501232002 66 327 5.0 12.0 0.00 0.00 0.00 28 1017.0
20260501231801 66 303 6.0 12.0 0.00 0.00 0.00 29 1017.0
20260501231602 66 257 6.0 12.0 0.00 0.00 0.00 28 1017.0
20260501231403 66 298 7.0 12.0 0.00 0.00 0.00 28 1017.1
20260501231201 67 284 7.0 14.0 0.00 0.00 0.00 28 1017.1
20260501230801 66 321 6.0 14.0 0.00 0.00 0.00 28 1017.1
20260501230601 66 301 7.0 16.0 0.00 0.00 0.00 27 1017.1
20260501230402 66 298 7.0 16.0 0.00 0.00 0.00 28 1017.1
20260501230004 66 272 7.0 16.0 0.00 0.00 0.00 26 1017.2
20260501225602 67 327 5.0 12.0 0.00 0.00 0.00 27 1017.1
20260501225402 67 259 4.0 12.0 0.00 0.00 0.00 29 1017.1
20260501225202 66 334 5.0 12.0 0.00 0.00 0.00 28 1017.2
20260501224801 66 300 5.0 12.0 0.00 0.00 0.00 28 1017.2
20260501224601 66 288 6.0 12.0 0.00 0.00 0.00 27 1017.1
20260501224403 66 249 8.0 13.0 0.00 0.00 0.00 28 1017.2
20260501224203 66 313 7.0 13.0 0.00 0.00 0.00 28 1017.2
20260501224002 67 298 4.0 13.0 0.00 0.00 0.00 27 1017.2
20260501223802 66 277 4.0 13.0 0.00 0.00 0.00 26 1017.3
20260501223401 66 338 6.0 16.0 0.00 0.00 0.00 27 1017.4
20260501223202 66 272 7.0 16.0 0.00 0.00 0.00 28 1017.3
20260501223001 66 289 9.0 16.0 0.00 0.00 0.00 27 1017.3
20260501222802 66 278 7.0 12.0 0.00 0.00 0.00 27 1017.4
20260501222602 66 242 6.0 12.0 0.00 0.00 0.00 27 1017.5
20260501222201 67 303 5.0 12.0 0.00 0.00 0.00 27 1017.6
20260501222002 66 360 4.0 12.0 0.00 0.00 0.00 29 1017.6
20260501221802 66 315 6.0 13.0 0.00 0.00 0.00 28 1017.5
20260501221602 66 336 8.0 13.0 0.00 0.00 0.00 29 1017.6
20260501221402 66 313 7.0 14.0 0.00 0.00 0.00 27 1017.5
20260501221201 66 321 7.0 14.0 0.00 0.00 0.00 27 1017.6
20260501221002 66 294 6.0 14.0 0.00 0.00 0.00 27 1017.6
20260501220801 66 292 7.0 14.0 0.00 0.00 0.00 28 1017.6
20260501220602 66 317 7.0 14.0 0.00 0.00 0.00 27 1017.6
20260501220402 66 322 6.0 13.0 0.00 0.00 0.00 27 1017.6
20260501220202 67 278 5.0 13.0 0.00 0.00 0.00 26 1017.7
20260501215602 66 298 4.0 15.0 0.00 0.00 0.00 28 1017.7
20260501215401 66 351 7.0 15.0 0.00 0.00 0.00 28 1017.7
20260501215201 65 281 5.0 15.0 0.00 0.00 0.00 29 1017.7
20260501214802 65 281 10.0 15.0 0.00 0.00 0.00 28 1017.8
20260501214602 66 296 8.0 14.0 0.00 0.00 0.00 28 1017.8
20260501214402 66 340 6.0 14.0 0.00 0.00 0.00 29 1017.7
20260501214202 66 309 5.0 15.0 0.00 0.00 0.00 29 1017.8
20260501214002 66 281 8.0 15.0 0.00 0.00 0.00 30 1017.8
20260501213601 65 294 8.0 15.0 0.00 0.00 0.00 28 1017.9
20260501213402 66 287 9.0 14.0 0.00 0.00 0.00 30 1017.9
20260501213202 65 278 5.0 14.0 0.00 0.00 0.00 31 1017.8
20260501213002 65 313 8.0 14.0 0.00 0.00 0.00 30 1017.9
20260501212802 65 288 8.0 14.0 0.00 0.00 0.00 28 1017.9
20260501212602 65 306 9.0 14.0 0.00 0.00 0.00 29 1017.9
20260501212401 65 276 7.0 11.0 0.00 0.00 0.00 29 1018.0
20260501212201 66 300 7.0 11.0 0.00 0.00 0.00 27 1018.0
20260501212001 66 231 5.0 12.0 0.00 0.00 0.00 29 1018.0
20260501211802 66 283 5.0 16.0 0.00 0.00 0.00 30 1018.0
20260501211601 65 257 5.0 16.0 0.00 0.00 0.00 30 1017.9
20260501211402 66 263 7.0 16.0 0.00 0.00 0.00 30 1018.0
20260501210802 65 289 7.0 14.0 0.00 0.00 0.00 29 1018.0
20260501210601 66 304 7.0 14.0 0.00 0.00 0.00 27 1018.0
20260501210201 65 308 8.0 14.0 0.00 0.00 0.00 29 1018.0
20260501210001 65 257 7.0 14.0 0.00 0.00 0.00 29 1018.0
20260501205800 65 306 7.0 14.0 0.00 0.00 0.00 29 1018.1
20260501205400 65 254 7.0 14.0 0.00 0.00 0.00 30 1018.0
20260501205200 65 253 8.0 14.0 0.00 0.00 0.00 28 1018.1
20260501205001 66 261 7.0 13.0 0.00 0.00 0.00 28 1018.1
20260501204600 66 263 5.0 12.0 0.00 0.00 0.00 28 1018.1
20260501204401 66 277 5.0 12.0 0.00 0.00 0.00 28 1018.1
20260501204201 66 237 5.0 14.0 0.00 0.00 0.00 28 1018.2
20260501204001 66 287 6.0 14.0 0.00 0.00 0.00 29 1018.2
20260501203801 65 277 4.0 14.0 0.00 0.00 0.00 30 1018.2
20260501203600 65 278 6.0 14.0 0.00 0.00 0.00 28 1018.2
20260501203401 65 248 7.0 14.0 0.00 0.00 0.00 28 1018.2
20260501203202 65 290 5.0 11.0 0.00 0.00 0.00 27 1018.1
20260501203001 66 302 5.0 11.0 0.00 0.00 0.00 28 1018.1
20260501202801 66 325 5.0 11.0 0.00 0.00 0.00 29 1018.2
20260501202401 66 290 3.0 11.0 0.00 0.00 0.00 31 1018.1
20260501202201 66 292 4.0 11.0 0.00 0.00 0.00 31 1018.1
20260501202001 66 279 4.0 11.0 0.00 0.00 0.00 29 1018.2
20260501201800 65 192 6.0 11.0 0.00 0.00 0.00 29 1018.2
20260501201600 65 321 4.0 11.0 0.00 0.00 0.00 30 1018.2
20260501201401 65 267 7.0 11.0 0.00 0.00 0.00 29 1018.1
20260501201201 65 302 6.0 11.0 0.00 0.00 0.00 30 1018.2
20260501201000 64 292 4.0 11.0 0.00 0.00 0.00 31 1018.2
20260501200800 65 302 4.0 11.0 0.00 0.00 0.00 28 1018.2
20260501200601 65 330 6.0 12.0 0.00 0.00 0.00 29 1018.3
20260501200401 65 314 6.0 12.0 0.00 0.00 0.00 31 1018.2
20260501200201 65 309 3.0 12.0 0.00 0.00 0.00 29 1018.2
20260501200004 65 239 6.0 12.0 0.00 0.00 0.00 29 1018.3
20260501195603 65 263 5.0 10.0 0.00 0.00 0.00 29 1018.3
20260501195402 65 261 3.0 9.0 0.00 0.00 0.00 30 1018.3
20260501195201 65 252 4.0 9.0 0.00 0.00 0.00 27 1018.3
20260501195002 65 217 3.0 9.0 0.00 0.00 0.00 29 1018.3
20260501194801 64 269 2.0 9.0 0.00 0.00 0.00 28 1018.4
20260501194402 65 315 3.0 10.0 0.00 0.00 0.00 28 1018.5
20260501194203 64 248 3.0 10.0 0.00 0.00 0.00 30 1018.5
20260501194002 64 306 4.0 10.0 0.00 0.00 0.00 28 1018.5
20260501193802 65 265 4.0 10.0 0.00 0.00 0.00 27 1018.5
20260501193604 65 329 2.0 9.0 0.00 0.00 0.00 29 1018.4
20260501193402 64 294 3.0 9.0 0.00 0.00 0.00 25 1018.5
20260501193201 65 299 4.0 10.0 0.00 0.00 0.00 27 1018.5
20260501193002 65 217 4.0 10.0 0.00 0.00 0.00 28 1018.5
20260501192401 65 301 6.0 10.0 0.00 0.00 0.00 26 1018.5
20260501192202 65 285 3.0 8.0 0.00 0.00 0.00 27 1018.6
20260501192002 65 257 3.0 8.0 0.00 0.00 0.00 29 1018.6
20260501191802 65 296 3.0 8.0 0.00 0.00 0.00 28 1018.6
20260501191602 65 207 4.0 8.0 0.00 0.00 0.00 25 1018.7
20260501191402 65 83 3.0 10.0 0.00 0.00 0.00 27 1018.6
20260501191202 65 294 2.0 10.0 0.00 0.00 0.00 26 1018.7
20260501191002 65 265 3.0 10.0 0.00 0.00 0.00 27 1018.7
20260501190603 65 196 4.0 8.0 0.00 0.00 0.00 26 1018.7
20260501190402 65 293 2.0 8.0 0.00 0.00 0.00 27 1018.7
20260501190201 65 190 2.0 8.0 0.00 0.00 0.00 25 1018.7
20260501190003 64 54 1.0 8.0 0.00 0.00 0.00 27 1018.7
20260501185802 64 280 4.0 8.0 0.00 0.00 0.00 28 1018.8
20260501185601 64 294 2.0 6.0 0.00 0.00 0.00 26 1018.8
20260501185402 65 192 2.0 6.0 0.00 0.00 0.00 25 1018.8
20260501185202 65 173 3.0 6.0 0.00 0.00 0.00 26 1018.9
20260501185001 65 195 3.0 6.0 0.00 0.00 0.00 25 1018.9
20260501184802 65 178 2.0 6.0 0.00 0.00 0.00 22 1019.0
20260501184601 65 222 2.0 7.0 0.00 0.00 0.00 23 1019.0
20260501184401 66 190 1.0 7.0 0.00 0.00 0.00 24 1018.9
20260501184203 65 179 2.0 7.0 0.00 0.00 0.00 23 1019.0
20260501183802 64 204 2.0 5.0 0.00 0.00 0.00 25 1019.0
20260501183601 64 319 0.0 4.0 0.00 0.00 0.00 25 1019.1
20260501183402 64 49 1.0 4.0 0.00 0.00 0.00 24 1019.1
20260501183202 63 111 2.0 4.0 0.00 0.00 0.00 25 1019.1
20260501182801 64 76 2.0 5.0 0.00 0.00 0.00 25 1019.1
20260501182601 64 186 2.0 7.0 0.00 0.00 0.00 26 1019.1
20260501182402 63 275 1.0 8.0 0.00 0.00 0.00 26 1019.0
20260501182202 63 326 2.0 8.0 0.00 0.00 0.00 24 1019.1
20260501182002 63 322 3.0 8.0 0.00 0.00 0.00 24 1019.1
20260501181601 63 298 3.0 8.0 0.00 0.00 0.00 26 1019.1
20260501181201 64 272 3.0 7.0 0.00 0.00 0.00 25 1019.1
20260501181002 64 296 1.0 5.0 0.00 0.00 0.00 26 1019.1
20260501180802 64 290 2.0 6.0 0.00 0.00 0.00 27 1019.2
20260501180602 63 213 2.0 8.0 0.00 0.00 0.00 27 1019.2
20260501180202 63 171 3.0 8.0 0.00 0.00 0.00 28 1019.3
20260501180003 63 202 2.0 8.0 0.00 0.00 0.00 27 1019.2
20260501175801 63 167 3.0 8.0 0.00 0.00 0.00 26 1019.3
20260501175602 64 245 2.0 5.0 0.00 0.00 0.00 27 1019.3
20260501175402 64 195 1.0 5.0 0.00 0.00 0.00 28 1019.4
20260501175201 63 214 3.0 5.0 0.00 0.00 0.00 27 1019.4
20260501175002 63 168 3.0 6.0 0.00 0.00 0.00 26 1019.3
20260501174801 63 151 2.0 5.0 0.00 0.00 0.00 27 1019.4
20260501174602 63 210 3.0 5.0 0.00 0.00 0.00 28 1019.4
20260501174202 63 275 2.0 5.0 0.00 0.00 0.00 27 1019.4
20260501174001 63 279 2.0 5.0 0.00 0.00 0.00 26 1019.4
20260501173801 63 267 2.0 5.0 0.00 0.00 0.00 27 1019.4
20260501173601 63 240 2.0 5.0 0.00 0.00 0.00 28 1019.4
20260501173402 63 281 2.0 5.0 0.00 0.00 0.00 27 1019.4
20260501173201 63 227 1.0 4.0 0.00 0.00 0.00 26 1019.4
20260501173001 63 241 1.0 4.0 0.00 0.00 0.00 29 1019.4
20260501172801 63 242 2.0 4.0 0.00 0.00 0.00 27 1019.4
20260501172200 63 173 2.0 5.0 0.00 0.00 0.00 26 1019.5
20260501172000 62 277 0.0 5.0 0.00 0.00 0.00 27 1019.5
20260501171800 61 279 2.0 7.0 0.00 0.00 0.00 28 1019.5
20260501171600 61 293 4.0 7.0 0.00 0.00 0.00 28 1019.5
20260501171200 62 245 2.0 7.0 0.00 0.00 0.00 30 1019.5
20260501170801 60 185 3.0 7.0 0.00 0.00 0.00 28 1019.6
20260501170601 61 186 5.0 7.0 0.00 0.00 0.00 28 1019.6
20260501170401 61 182 4.0 7.0 0.00 0.00 0.00 28 1019.6
20260501170201 61 192 5.0 7.0 0.00 0.00 0.00 30 1019.5
20260501170000 61 197 3.0 7.0 0.00 0.00 0.00 30 1019.6
20260501165800 61 218 3.0 7.0 0.00 0.00 0.00 30 1019.6
20260501165600 60 205 1.0 5.0 0.00 0.00 0.00 30 1019.6
20260501165401 60 178 2.0 5.0 0.00 0.00 0.00 30 1019.6
20260501165201 60 184 1.0 5.0 0.00 0.00 0.00 29 1019.7
20260501165002 61 185 2.0 5.0 0.00 0.00 0.00 32 1019.6
20260501164801 61 132 3.0 5.0 0.00 0.00 0.00 31 1019.6
20260501164602 60 188 2.0 6.0 0.00 0.00 0.00 29 1019.6
20260501164401 60 105 1.0 6.0 0.00 0.00 0.00 28 1019.6
20260501164200 60 343 2.0 6.0 0.00 0.00 0.00 30 1019.6
20260501164000 60 323 2.0 5.0 0.00 0.00 0.00 29 1019.6
20260501163800 60 302 1.0 5.0 0.00 0.00 0.00 28 1019.6
20260501163601 59 302 1.0 5.0 0.00 0.00 0.00 30 1019.6
20260501162800 59 278 3.0 7.0 0.00 0.00 0.00 31 1019.6
20260501162400 59 294 4.0 8.0 0.00 0.00 0.00 31 1019.6
20260501162200 59 298 3.0 8.0 0.00 0.00 0.00 32 1019.6
20260501162001 59 306 3.0 8.0 0.00 0.00 0.00 31 1019.6
20260501161600 58 259 3.0 7.0 0.00 0.00 0.00 32 1019.6
20260501161201 59 292 2.0 8.0 0.00 0.00 0.00 31 1019.5
20260501161001 58 232 2.0 9.0 0.00 0.00 0.00 32 1019.5
20260501160800 58 267 4.0 9.0 0.00 0.00 0.00 31 1019.5
20260501160601 59 290 4.0 9.0 0.00 0.00 0.00 30 1019.5
20260501160400 59 291 4.0 9.0 0.00 0.00 0.00 32 1019.5
20260501160201 59 281 3.0 8.0 0.00 0.00 0.00 34 1019.4
20260501155800 58 282 3.0 8.0 0.00 0.00 0.00 33 1019.5
20260501155600 58 304 5.0 8.0 0.00 0.00 0.00 32 1019.4
20260501155401 58 265 4.0 8.0 0.00 0.00 0.00 34 1019.4
20260501154801 58 282 3.0 5.0 0.00 0.00 0.00 33 1019.5
20260501154600 58 297 3.0 8.0 0.00 0.00 0.00 34 1019.5
20260501154400 58 292 3.0 8.0 0.00 0.00 0.00 34 1019.5
20260501154200 58 269 1.0 8.0 0.00 0.00 0.00 36 1019.5
20260501154001 57 275 1.0 8.0 0.00 0.00 0.00 37 1019.5
20260501153800 57 263 3.0 8.0 0.00 0.00 0.00 36 1019.5
20260501153559 57 319 2.0 6.0 0.00 0.00 0.00 36 1019.4
20260501153401 57 290 3.0 6.0 0.00 0.00 0.00 35 1019.5
20260501153201 57 291 3.0 7.0 0.00 0.00 0.00 36 1019.6
20260501153001 57 274 4.0 7.0 0.00 0.00 0.00 35 1019.5
20260501152800 57 277 2.0 7.0 0.00 0.00 0.00 36 1019.6
20260501152600 57 289 2.0 6.0 0.00 0.00 0.00 36 1019.4
20260501152400 56 284 3.0 6.0 0.00 0.00 0.00 35 1019.4